星链-6044 (STARLINK-6044 )

导读

STARLINK-6044是美国星链计划中的一颗卫星,于2023年5月10日发射入轨。它隶属于SpaceX公司打造的星链卫星互联网星座,主要用于为全球提供低延迟、高速率的卫星互联网服务,助力偏远地区网络覆盖,也服务于海事、航空等特殊场景的互联网接入需求,是星链大规模组网进程中的组成单元。

基本信息
目录编号:
56479
目录名称:
STARLINK-6044
国际标识:
2023-064AH
轨道中心:
EARTH
卫星名称:
星链-6044
卫星全名:
星链-6044 (STARLINK-6044 )
卫星状态:
在轨 (已飞行1221 天)
发射日期:
2023-05-10 UTC
国别 :
美国 (US)
星等 :
--
该卫星已列入 空间交会检测服务 Space Conjunction Data Service (SCDS) ,当前飞行风险评估等级: 无高风险
轨道信息
数据来源 国际轨道数据 AOE轨道数据
星历时间 2026-09-12T02:04:40+0800
21小时前
查看轨道信息
2026-09-10T07:00:00+0800
2天前
查看轨道信息
半长轴 6950.194km 6950.194km
偏心率 0.0003471 0.0003204
轨道倾角 70.001° 70.001°
近地点辐角 269.073° 260.990°
升交点赤经 15.171° 19.695°
平近点角 91.003° 140.148°
近地点 569.644km 569.83km
远地点 574.47km 574.284km
周期 96.107分钟 96.107分钟
每日圈数 14.983298 14.983297
详细信息
固有亮度:
5
最大亮度:
2.5
卫星平台:
Starlink v1.5
覆盖范围:
全球
运营商:
太空探索技术公司
运营商所在国:
美国
制造商(研发单位):
太空探索技术公司
制造商所在国:
美国
使用方式:
暂无
卫星简介
星链(Starlink)计划是由太空探索技术公司(SpaceX)提出的一个巨型低轨卫星互联网星座项目,计划在2019年至2024年间在太空搭建由约1.2万颗卫星组成的“星链”网络,其中1584颗将部署在地球上空550千米处的近地轨道,并从2020年开始工作。该卫星仍在工作。
2D轨道图
3D轨道图
轨道高度分析图
轨道倾角分析图
轨道综合分析图
查看轨道综合分析图
交会数据列表
事件ID 空间交会对象 最接近时刻(TCA) 交会距离 交会风险概率(CRP) 交会风险指数(CRI) 操作
CDM_260914-170804-488905-647922
OBJECT L (44889)
2026-09-14T
17:08:35+0000
1.122 km
极远距离
9.09733E-6 低风险 0.54
CDM_260906-053202-545405-647921
2026-09-06T
05:32:49+0000
2.695 km
极远距离
8.454105E-7 极低风险 0.34
与全量物体交会距离演化趋势
与全量物体交会风险概率演化趋势